Home   Weather   Copenhagen   Past weeks

Flag for Denmark Past Weather in Copenhagen, Denmark — Yesterday and Last 2 Weeks

Now
36 °F

Fog.


Feels Like: 36 °F
Forecast: 36 / 49 °F
Wind: 2 mph from East

Location: Koebenhavn-Kastrup Airport

Current Time: Apr 30, 2017 at 5:37:55 am

Latest Report: Apr 30, 2017 at 4:50 am


Visibility: N/A

Pressure: 30.21 "Hg

Humidity: 100%

Dew Point: 36 °F

Location of CopenhagenLocation

Past Weather in Copenhagen — Graph

°F

Copenhagen Temperature Yesterday

Maximum temperature yesterday: 46 °F (at 5:20 pm)
Minimum temperature yesterday: 39 °F (at 7:20 am)
Average temperature yesterday: 42 °F

High & Low Weather Summary for the Past Weeks

 TemperatureHumidityPressure
High54 °F (Apr 21, 12:20 pm)100% (Apr 15, 8:50 am)30.63 "Hg (Apr 15, 8:50 am)
Low30 °F (Apr 19, 5:20 am)25% (Apr 22, 6:20 pm)29.50 "Hg (Apr 15, 3:20 pm)
Average41 °F73%29.99 "Hg
* Reported Apr 15 4:20 am — Apr 30 4:20 am, Copenhagen, Weather by CustomWeather, © 2017

Note: Actual official high and low records may vary slightly from our data, if they occured in-between our weather recording intervals... More about our weather records

Advertising

Copenhagen Weather History for the Previous 24 Hours

Scroll right to see more
 ConditionsComfort  
Time TempWeatherWind HumidityBarometerVisibility
4:20 am
Sun, Apr 30
36 °FFog.No wind100%30.21 "HgN/A
3:50 am36 °FFog.1 mph100%30.21 "HgN/A
3:20 am37 °FPassing clouds.1 mph93%30.18 "HgN/A
2:50 am37 °FPassing clouds.No wind93%30.18 "HgN/A
2:20 am36 °FPassing clouds.No wind100%30.18 "HgN/A
1:50 am37 °FPassing clouds.2 mph93%30.18 "HgN/A
1:20 am37 °FPassing clouds.2 mph93%30.18 "HgN/A
12:50 am39 °FPassing clouds.2 mph87%30.18 "HgN/A
12:20 am41 °FPassing clouds.3 mph81%30.18 "HgN/A
11:50 pm
Sat, Apr 29
41 °FPassing clouds.5 mph81%30.18 "HgN/A
11:20 pm41 °FPassing clouds.5 mph81%30.18 "HgN/A
10:50 pm41 °FSprinkles. Passing clouds.12 mph76%30.18 "HgN/A
10:20 pm41 °FSprinkles. Passing clouds.15 mph81%30.18 "HgN/A
9:50 pm39 °FSprinkles. Passing clouds.17 mph87%30.15 "HgN/A
9:20 pm43 °FPartly cloudy.7 mph87%30.15 "HgN/A
8:50 pm41 °FPassing clouds.6 mph87%30.15 "HgN/A
8:20 pm43 °FPartly sunny.3 mph81%30.12 "HgN/A
7:50 pm43 °FPartly sunny.5 mph81%30.12 "HgN/A
7:20 pm43 °FSprinkles. Broken clouds.6 mph81%30.12 "HgN/A
6:50 pm43 °FSprinkles. Broken clouds.1 mph81%30.09 "HgN/A
6:20 pm43 °FSprinkles. Broken clouds.8 mph87%30.09 "HgN/A
5:50 pm43 °FSprinkles. Partly sunny.12 mph87%30.09 "HgN/A
5:20 pm46 °FPartly sunny.2 mph66%30.09 "HgN/A
4:50 pm45 °FPartly sunny.5 mph76%30.07 "HgN/A
4:20 pm45 °FPartly sunny.7 mph81%30.07 "HgN/A
3:50 pm43 °FPartly sunny.9 mph87%30.07 "HgN/A
3:20 pm45 °FSprinkles. Partly sunny.5 mph76%30.07 "HgN/A
2:50 pm45 °FLight rain. Partly sunny.6 mph87%30.04 "HgN/A
2:20 pm43 °FLight rain. Partly sunny.1 mph81%30.04 "HgN/A
1:50 pm45 °FLight rain. Partly sunny.5 mph81%30.04 "HgN/A
1:20 pm45 °FLight rain. Partly sunny.5 mph81%30.04 "HgN/A
12:50 pm43 °FLight rain. Partly sunny.3 mph87%30.01 "HgN/A
12:20 pm43 °FLight rain. Partly sunny.1 mph87%30.01 "HgN/A
11:50 am41 °FLight rain. Partly sunny.3 mph93%30.01 "Hg4 mi
11:20 am41 °FLight rain. Partly sunny.3 mph93%30.01 "Hg3 mi
10:50 am41 °FLight rain. Partly sunny.2 mph87%30.01 "Hg3 mi
10:20 am39 °FLight rain. Partly sunny.3 mph87%30.01 "Hg3 mi
9:50 am39 °FLight rain. Partly sunny.6 mph93%29.98 "Hg4 mi
9:20 am39 °FLight rain. Partly sunny.5 mph87%29.98 "Hg4 mi
8:50 am39 °FLight rain. Partly sunny.8 mph87%29.98 "Hg4 mi
8:20 am39 °FRain. Partly sunny.12 mph87%29.98 "Hg3 mi
7:50 am39 °FLight rain. Partly sunny.9 mph93%29.95 "Hg3 mi
7:20 am39 °FSprinkles. Overcast.7 mph87%29.95 "Hg3 mi
6:50 am41 °FRain showers. Scattered clouds.12 mph93%29.95 "Hg2 mi
6:20 am41 °FRain showers. Scattered clouds.10 mph93%29.95 "Hg2 mi
5:50 am41 °FRain showers. Scattered clouds.7 mph93%29.95 "Hg4 mi
5:20 am41 °FRain showers. Passing clouds.8 mph93%29.95 "Hg5 mi
Weather by CustomWeather, © 2017

See weather overviewHow to use our weather pages